Location: Bamobli
(6.6379°N, 10.9396°W)
Time: 16:20:47
(UTC+00:00)

Envisat - Visible Passes

Search period start: 23 June 2021 00:00
Search period end: 03 July 2021 00:00
Orbit: 764 x 766 km, 98.1° (Epoch: 22 June)

Date Brightness Start Highest point End Pass type
(mag) Time Alt. Az. Time Alt. Az. Time Alt. Az.
23 Jun 3.0 05:46:25 10° NNE 05:51:30 86° ESE 05:56:34 10° S visible
24 Jun 4.8 05:10:21 10° NE 05:14:45 30° E 05:19:08 10° SSE visible
25 Jun 6.1 04:37:53 10° E 04:37:58 10° E 04:38:04 10° ESE visible
26 Jun 3.5 05:35:03 10° NNE 05:40:03 63° ESE 05:45:04 10° S visible
27 Jun 5.2 04:59:26 10° NE 05:03:17 22° E 05:07:09 10° SSE visible
28 Jun 3.1 06:00:21 10° N 06:05:21 62° WNW 06:10:21 10° SSW visible
29 Jun 4.0 05:23:46 10° NNE 05:28:36 45° ESE 05:33:26 10° S visible
30 Jun 5.6 04:48:46 10° ENE 04:51:50 16° E 04:54:53 10° SE visible
01 Jul 3.0 05:48:50 10° N 05:53:54 85° WNW 05:58:59 10° SSW visible
02 Jul 4.6 05:12:37 10° NE 05:17:09 33° E 05:21:40 10° SSE visible
